Torna al catalogo

FENGYUN 1C DEB

AttivoSSO
NORAD 31210·DEBRIS·🇨🇳 China

Lanciato May 10, 1999 da Taiyuan Satellite Launch Center

Loading…

Prossimi Passaggi (prossime 24 ore)

TLE

In scadenzaSource: Space-Track

Epoca: Sep 10, 2026, 05:38 UTC

1 31210U 99025BKQ 26253.23475894  .00000347  00000-0  21156-3 0  9994
2 31210  98.7277 251.9718 0018038 104.6078 317.7197 14.12306143997991

Traccia FENGYUN 1C DEB in tempo reale con AllMySat

Download on the App Store